Weather History for Defiance, OH

Change the Weather History Date:

Monday, August 19, 2013

  Actual Average Record
Temperature  
Mean Temperature 70 °F -  
Max Temperature 84 °F 83 °F 94 °F (1947)
Min Temperature 55 °F 58 °F 43 °F (1981)
Cooling Degree Days 4    
Growing Degree Days 20 (Base 50)    
Moisture  
Dew Point 57 °F    
Average Humidity 68    
Maximum Humidity 96    
Minimum Humidity 38    
Precipitation  
Precipitation 0.00 in - - ()
Sea Level Pressure  
Sea Level Pressure 30.11 in    
Wind  
Wind Speed 1 mph (SW)    
Max Wind Speed 8 mph    
Max Gust Speed -    
Visibility 8 miles    
Events      
Averages and records for this station are not official NWS values.
T = Trace of Precipitation, MM = Missing Value Source: NWS Daily Summary

Daily Weather History Graph

Daily Weather History Graph

Search for Another Location

Airport:

Trip Planner

Search our weather history database for the weather conditions in past years. The results will help you decide how hot, cold, wet, or windy it might be!

Date:

Astronomy

Aug. 19, 2013 Rise Set
Actual Time 6:51 AM EDT 8:30 PM EDT
Civil Twilight 6:21 AM EDT 8:59 PM EDT
Nautical Twilight 5:46 AM EDT 9:35 PM EDT
Astronomical Twilight 5:08 AM EDT 10:13 PM EDT
Moon 7:21 PM EDT (8/19) 5:08 AM EDT (8/19)
Length of Visible Light 14h 38m
Length of Day
13h 39m
Waxing Gibbous, 97% of the Moon is Illuminated
Aug 19
Waxing Gibbous
Aug 20
Full
Aug 28
Last Quarter
Sep 5
New
Sep 12
First Quarter

Hourly Weather History & Observations

Time (EDT) Temp. Heat Index Dew Point Humidity Pressure Visibility Wind Dir Wind Speed Gust Speed Precip Events Conditions
12:53 AM 61.0 °F - 57.0 °F 87% 30.13 in 9.0 mi Calm Calm - N/A   Clear
1:53 AM 60.1 °F - 55.9 °F 86% 30.13 in 9.0 mi Calm Calm - N/A   Clear
2:53 AM 57.9 °F - 55.0 °F 90% 30.12 in 6.0 mi Calm Calm - N/A   Clear
3:53 AM 60.1 °F - 55.9 °F 86% 30.12 in 7.0 mi Calm Calm - N/A   Clear
4:53 AM 55.0 °F - 54.0 °F 96% 30.12 in 2.0 mi Calm Calm - N/A   Partly Cloudy
5:03 AM 57.2 °F - 53.6 °F 88% 30.13 in 3.0 mi Calm Calm - N/A   Partly Cloudy
5:53 AM 57.0 °F - 54.0 °F 89% 30.13 in 6.0 mi Calm Calm - N/A   Partly Cloudy
6:53 AM 57.0 °F - 54.0 °F 89% 30.14 in 4.0 mi Calm Calm - N/A   Mostly Cloudy
7:53 AM 57.9 °F - 55.9 °F 93% 30.14 in 3.0 mi Calm Calm - N/A   Clear
8:53 AM 66.9 °F - 60.1 °F 79% 30.14 in 5.0 mi Calm Calm - N/A   Haze
9:53 AM 73.0 °F - 59.0 °F 61% 30.14 in 10.0 mi SW 3.5 mph - N/A   Clear
10:53 AM 75.9 °F - 57.9 °F 54% 30.15 in 10.0 mi SW 5.8 mph - N/A   Clear
11:53 AM 79.0 °F - 57.9 °F 48% 30.12 in 10.0 mi Calm Calm - N/A   Clear
12:53 PM 81.0 °F 81.1 °F 57.9 °F 45% 30.12 in 10.0 mi SW 5.8 mph - N/A   Mostly Cloudy
1:53 PM 81.0 °F 81.0 °F 57.0 °F 44% 30.11 in 10.0 mi SW 8.1 mph - N/A   Mostly Cloudy
2:53 PM 82.9 °F 82.4 °F 57.0 °F 41% 30.10 in 10.0 mi Calm Calm - N/A   Mostly Cloudy
3:53 PM 84.0 °F 83.0 °F 55.9 °F 38% 30.09 in 10.0 mi Calm Calm - N/A   Partly Cloudy
4:53 PM 84.0 °F 83.5 °F 57.9 °F 41% 30.08 in 10.0 mi Variable 5.8 mph - N/A   Scattered Clouds
5:53 PM 82.9 °F 82.8 °F 59.0 °F 44% 30.07 in 10.0 mi SSW 4.6 mph - N/A   Clear
6:53 PM 82.9 °F 82.6 °F 57.9 °F 42% 30.06 in 10.0 mi SW 4.6 mph - N/A   Scattered Clouds
7:53 PM 79.0 °F - 59.0 °F 50% 30.06 in 10.0 mi Calm Calm - N/A   Clear
8:53 PM 73.9 °F - 60.1 °F 62% 30.06 in 10.0 mi Calm Calm - N/A   Mostly Cloudy
9:53 PM 71.1 °F - 61.0 °F 70% 30.08 in 10.0 mi Calm Calm - N/A   Clear
10:53 PM 66.9 °F - 61.0 °F 81% 30.09 in 10.0 mi Calm Calm - N/A   Clear
11:53 PM 64.9 °F - 60.1 °F 84% 30.09 in 8.0 mi Calm Calm - N/A   Clear